Regional Weather Roundup
Issued by NWS

Home | Current Version | Previous Version | Text Only | Print | Product List | Glossary On
Versions: 1 2 3 4 5 6 7 8 9 10 11 12 13 14 15 16 17 18 19 20 21 22 23 24 25 26 27 28 29 30 31 32 33 34 35 36 37 38 39 40 41 42 43 44 45 46 47 48 49 50
696
ASUS43 KDTX 191210
RWRMI
MICHIGAN HOURLY REGIONAL WEATHER ROUNDUP
NATIONAL WEATHER SERVICE DETROIT/PONTIAC MI
700 AM EST FRI JAN 19 2018

NOTE: "FAIR" INDICATES FEW OR NO CLOUDS BELOW 12,000 FEET WITH NO
SIGNIFICANT WEATHER AND/OR OBSTRUCTION TO VISIBILITY.

MIZ047>049-052>055-059>063-066>070-074>076-081>083-191300-
SOUTHEAST LOWER MICHIGAN

CITY           SKY/WX    TMP DP  RH WIND       PRES   REMARKS
ADRIAN         FAIR      22  13  68 SW9       29.97F WCI  12
6HR MIN TEMP:  21; 6HR MAX TEMP:  23;

ALMA           FAIR      24  21  87 SW8       29.86S WCI  16
6HR MIN TEMP:  24; 6HR MAX TEMP:  28;

ANN ARBOR      FAIR      20  13  74 S8        29.93F WCI  10
BAD AXE        FAIR      23  18  80 SW7       29.86S WCI  14
6HR MIN TEMP:  23; 6HR MAX TEMP:  25;

CARO           FAIR      22  17  78 S7        29.87S WCI  14
DETROIT CITY   FAIR      23  14  68 SW9       29.95S WCI  13
6HR MIN TEMP:  23; 6HR MAX TEMP:  25;

DETROIT        FAIR      22  14  71 SW14      29.95F WCI   9
6HR MIN TEMP:  21; 6HR MAX TEMP:  24;

FLINT          FAIR      24  15  68 SW9       29.90R WCI  14
6HR MIN TEMP:  23; 6HR MAX TEMP:  25;

GROSSE ILE     FAIR      23  15  70 SW9       29.96F WCI  13
6HR MIN TEMP:  23; 6HR MAX TEMP:  25;

HILLSDALE      FAIR      25  16  68 SW9G16    29.93F WCI  15
HOWELL         FAIR      25  18  74 SW8       29.90R WCI  16
6HR MIN TEMP:  24; 6HR MAX TEMP:  25;


CITY           SKY/WX    TMP DP  RH WIND       PRES   REMARKS
JACKSON        FAIR      26  16  65 SW20      29.91F WCI  12
6HR MIN TEMP:  24; 6HR MAX TEMP:  26;

LAMBERTVILLE   FAIR      24  14  66 SW10G20   29.98F WCI  14
6HR MIN TEMP:  24; 6HR MAX TEMP:  26;

LANSING        FAIR      24  17  74 SW14      29.89S WCI  12
6HR MIN TEMP:  24; 6HR MAX TEMP:  26;

LAPEER         FAIR      24  16  73 SW8       29.89R WCI  15
6HR MIN TEMP:  24; 6HR MAX TEMP:  26;

MASON          FAIR      26  15  63 SW7       29.90S WCI  18
6HR MIN TEMP:  25; 6HR MAX TEMP:  27;

MONROE         FAIR      23  13  66 SW13      29.96F WCI  11
6HR MIN TEMP:  22; 6HR MAX TEMP:  24;

MT. CLEMENS    MOCLDY   N/A N/A N/A SW8         N/A
PONTIAC        FAIR      20  14  77 S5        29.90R WCI  13
6HR MIN TEMP:  20; 6HR MAX TEMP:  26;

PORT HOPE        N/A     25  19  78 SW7       29.84R WCI  17
6HR MIN TEMP:  24; 6HR MAX TEMP:  27;

PORT HURON     FAIR      21  14  73 S7        29.94R WCI  13
TRI CITIES     FAIR      26  20  77 SW13      29.85F WCI  15
6HR MIN TEMP:  23; 6HR MAX TEMP:  26;

MIDLAND        FAIR      22  20  91 CALM      29.84S
6HR MIN TEMP:  19; 6HR MAX TEMP:  26;

TROY           FAIR      23  15  73 S7        29.95R WCI  15
SAGINAW HB     FAIR      23  19  86 S8        29.86S WCI  14
$$
MIZ043>046-050>051-056>058-064>065-071>073-077>080-191300-
SOUTHWEST LOWER MICHIGAN

CITY           SKY/WX    TMP DP  RH WIND       PRES   REMARKS
BATTLE CREEK   FAIR      22  15  75 SW12      29.91F WCI  10
6HR MIN TEMP:  20; 6HR MAX TEMP:  27;

BENTON HARBOR  FAIR      25  16  68 S8        29.93F WCI  16
6HR MIN TEMP:  24; 6HR MAX TEMP:  30;

BIG RAPIDS     FAIR      29  22  76 SW12G18   29.80F WCI  19
6HR MIN TEMP:  28; 6HR MAX TEMP:  29;

COLDWATER      FAIR      25  17  70 SW13      29.95F WCI  13
6HR MIN TEMP:  24; 6HR MAX TEMP:  25;

FREMONT        FAIR      29  20  69 SW8       29.84R WCI  21
6HR MIN TEMP:  28; 6HR MAX TEMP:  30;

HOLLAND        FAIR      32  25  75 SW17G29   29.88F WCI  21
6HR MIN TEMP:  32; 6HR MAX TEMP:  33;

GRAND RAPIDS   FAIR      26  19  74 SW15      29.87S WCI  14
6HR MIN TEMP:  25; 6HR MAX TEMP:  30;

IONIA          FAIR      26  19  75 SW14      29.86S WCI  15
6HR MIN TEMP:  25; 6HR MAX TEMP:  27;

KALAMAZOO      FAIR      27  17  66 SW13      29.92F WCI  16
6HR MIN TEMP:  25; 6HR MAX TEMP:  27;

LUDINGTON      FAIR      31  26  81 SW14      29.80S WCI  21
6HR MIN TEMP:  31; 6HR MAX TEMP:  32;

MARSHALL       FAIR      23  15  71 SW12      29.91F WCI  12
6HR MIN TEMP:  23; 6HR MAX TEMP:  25;

MOUNT PLEASANT FAIR      28  23  79 S6        29.81F WCI  22
6HR MIN TEMP:  28; 6HR MAX TEMP:  31;

MUSKEGON       FAIR      33  25  72 SW13      29.88R WCI  24
6HR MIN TEMP:  33; 6HR MAX TEMP:  34;

SOUTH HAVEN    FAIR      28  19  69 SW8       29.92S WCI  19
$$
MIZ016>042-191300-
NORTHERN LOWER MICHIGAN

CITY           SKY/WX    TMP DP  RH WIND       PRES   REMARKS
ALPENA         FAIR      27  23  85 SW7       29.77F WCI  19
6HR MIN TEMP:  27; 6HR MAX TEMP:  32;

BEAVER ISLAND  FAIR      32  28  85 SW7       29.71S WCI  25
6HR MIN TEMP:  31; 6HR MAX TEMP:  34;

BELLAIRE       FAIR      27  25  91 SW5       29.77S WCI  22
6HR MIN TEMP:  26; 6HR MAX TEMP:  31;

CADILLAC       FAIR      24  22  94 SW9       29.75F WCI  14
CHARLEVOIX     FAIR      29  26  90 S5        29.76F WCI  24
6HR MIN TEMP:  28; 6HR MAX TEMP:  34;

FRANKFORT      FAIR      33  28  79 S6        29.77S WCI  28
GAYLORD        FAIR      24  23  96 SW10      29.73S WCI  14
6HR MIN TEMP:  23; 6HR MAX TEMP:  29;

GRAYLING       FAIR      23  20  89 SW5       29.76F WCI  17
6HR MIN TEMP:  19; 6HR MAX TEMP:  28;

HARBOR SPRINGS FAIR      28  25  90 SW6       29.73F WCI  21
HOUGHTON LAKE  FAIR      23  20  88 S8        29.78S WCI  14
6HR MIN TEMP:  22; 6HR MAX TEMP:  25;

MANISTEE       FAIR      19  15  84 CALM      29.79S FOG
OSCODA         FAIR      22  18  87 SW7       29.82S FOG     WCI  13
6HR MIN TEMP:  21; 6HR MAX TEMP:  29;

PELLSTON       FAIR      29  24  82 SW7       29.73F WCI  22
6HR MIN TEMP:  29; 6HR MAX TEMP:  34;

ROGERS CITY    FAIR      28  24  84 S7        29.76F WCI  21
TRAVERSE CITY  FAIR      27  22  81 S5        29.76F WCI  22
6HR MIN TEMP:  25; 6HR MAX TEMP:  29;

$$
MIZ007>008-015-191300-
EASTERN UPPER MICHIGAN

CITY           SKY/WX    TMP DP  RH WIND       PRES   REMARKS
KINROSS        FAIR      29  27  92 VRB3      29.70S
6HR MIN TEMP:  29; 6HR MAX TEMP:  30;

MACKINAC ISLAN CLOUDY    31  27  84 S7        29.72R WCI  24
6HR MIN TEMP:  31; 6HR MAX TEMP:  32;

NEWBERRY       FAIR      26  25  96 S7        29.66F WCI  18
6HR MIN TEMP:  25; 6HR MAX TEMP:  29;

S. S. MARIE    FAIR      31  26  82 SW5       29.70R WCI  26
6HR MIN TEMP:  31; 6HR MAX TEMP:  32;

$$
MIZ004>006-011>014-085-191300-
CENTRAL UPPER MICHIGAN

CITY           SKY/WX    TMP DP  RH WIND       PRES   REMARKS
MANISTIQUE     FAIR      25  23  93 SW3       29.68F
6HR MIN TEMP:  24; 6HR MAX TEMP:  31;

ESCANABA       FAIR      19  17  92 S3        29.69F
6HR MIN TEMP:  18; 6HR MAX TEMP:  24;

MENOMINEE      FAIR      22  18  85 SW9       29.73F WCI  12
6HR MIN TEMP:  22; 6HR MAX TEMP:  26;

SAWYER-GWINN   CLEAR     23  19  86 S10       29.62F WCI  12
$$
MIZ001>003-009>011-084-191300-
WESTERN UPPER MICHIGAN

CITY           SKY/WX    TMP DP  RH WIND       PRES   REMARKS
IRON MOUNTAIN  FAIR      18  14  84 SE5       29.62F WCI  11
6HR MIN TEMP:  14; 6HR MAX TEMP:  22;

HOUGHTON       FAIR      25  20  81 S5        29.55F WCI  19
6HR MIN TEMP:  22; 6HR MAX TEMP:  31;

COPPER HARBOR    N/A     30  23  75 SW9       29.56F WCI  22
6HR MIN TEMP:  29; 6HR MAX TEMP:  33;

IRONWOOD       FAIR      31  25  78 SW12      29.56F WCI  22
6HR MIN TEMP:  24; 6HR MAX TEMP:  31;

$$

ABBREVIATIONS USED IN REMARKS
   TC - TEMPERATURE IN CELSIUS
  WCI - WIND CHILL INDEX
   HX - HEAT INDEX
  VSB - VISIBILITY





USA.gov is the U.S. government's official web portal to all federal, state and local government web resources and services.